Home   Weather   Canvey Island   Past weeks

Flag for United Kingdom Past Weather in Canvey Island, England, United Kingdom — Yesterday and Last 2 Weeks

Now
52 °F

Passing clouds.


Feels Like: 48 °F
Forecast: 50 / 56 °F
Wind: 10 mph from Southwest

Location: Southend Airport-On-Sea

Current Time: Dec 9, 2016 at 9:50:04 am

Latest Report: Dec 9, 2016 at 9:20 am


Visibility: 5 mi

Pressure: 30.30 "Hg

Humidity: 94%

Dew Point: 50 °F

Location of Canvey IslandLocation

Past Weather in Canvey Island — Graph

°F

Canvey Island Temperature Yesterday

Maximum temperature yesterday: 57 °F (at 11:20 am)
Minimum temperature yesterday: 50 °F (at 2:50 am)
Average temperature yesterday: 53 °F

High & Low Weather Summary for the Past Weeks

 TemperatureHumidityPressure
High57 °F (Dec 7, 1:20 pm)100% (Dec 6, 4:50 am)30.57 "Hg (Dec 6, 4:50 am)
Low23 °F (Dec 5, 6:50 am)50% (Nov 28, 10:50 am)30.12 "Hg (Nov 25, 1:50 pm)
Average42 °F79%30.31 "Hg
* Reported Nov 24 8:20 am — Dec 9 8:50 am, Canvey Island, Weather by CustomWeather, © 2016

Note: Actual official high and low records may vary slightly from our data, if they occured in-between our weather recording intervals... More about our weather records

Advertising

Canvey Island Weather History for the Previous 24 Hours

Scroll right to see more
 ConditionsComfort  
Time TempWeatherWind HumidityBarometerVisibility
8:50 am
Fri, Dec 9
54 °FPartly sunny.9 mph88%30.30 "Hg4 mi
8:20 am54 °FPartly sunny.7 mph88%30.30 "Hg4 mi
7:50 am52 °FPassing clouds.10 mph88%30.30 "Hg4 mi
7:20 am54 °FPassing clouds.9 mph88%30.30 "HgN/A
6:50 am54 °FPassing clouds.10 mph88%30.30 "HgN/A
6:20 am52 °FPassing clouds.9 mph88%30.27 "HgN/A
5:50 am52 °FPartly cloudy.8 mph94%30.27 "Hg6 mi
5:20 am54 °FPartly cloudy.8 mph88%30.27 "Hg6 mi
4:20 am54 °FPassing clouds.9 mph88%30.30 "Hg4 mi
3:50 am54 °FPassing clouds.8 mph88%30.30 "Hg4 mi
2:50 am52 °FPassing clouds.12 mph94%30.30 "Hg4 mi
1:50 am52 °FPassing clouds.8 mph94%30.30 "Hg4 mi
11:50 pm
Thu, Dec 8
54 °FPassing clouds.10 mph88%30.33 "Hg4 mi
11:20 pm54 °FPassing clouds.10 mph88%30.33 "Hg4 mi
10:50 pm54 °FPassing clouds.10 mph88%30.33 "Hg4 mi
10:20 pm54 °FPassing clouds.7 mph88%30.30 "Hg4 mi
9:20 pm54 °FPassing clouds.9 mph88%30.30 "HgN/A
8:50 pm54 °FOvercast.12 mph88%30.30 "HgN/A
8:20 pm54 °FPassing clouds.12 mph88%30.30 "HgN/A
7:50 pm52 °FPassing clouds.9 mph88%30.30 "HgN/A
7:20 pm54 °FPassing clouds.13 mph88%30.30 "HgN/A
6:50 pm54 °FPassing clouds.13 mph88%30.30 "HgN/A
6:20 pm54 °FPassing clouds.8 mph82%30.27 "HgN/A
5:50 pm54 °FPassing clouds.8 mph82%30.27 "HgN/A
5:20 pm52 °FPassing clouds.12 mph88%30.27 "HgN/A
4:50 pm54 °FPassing clouds.13 mph82%30.27 "HgN/A
4:20 pm52 °FPassing clouds.14 mph82%30.24 "HgN/A
3:50 pm54 °FPassing clouds.14 mph77%30.24 "HgN/A
3:20 pm54 °FPartly sunny.14 mph82%30.24 "HgN/A
2:50 pm54 °FPartly sunny.12 mph82%30.24 "HgN/A
2:20 pm54 °FPartly sunny.13 mph82%30.24 "HgN/A
1:50 pm55 °FPartly sunny.17 mph82%30.24 "HgN/A
1:20 pm54 °FPartly sunny.16 mph82%30.24 "HgN/A
12:50 pm54 °FPartly sunny.13 mph82%30.24 "HgN/A
12:20 pm54 °FPassing clouds.15 mph82%30.24 "HgN/A
11:50 am54 °FPassing clouds.18 mph77%30.24 "HgN/A
11:20 am57 °FPassing clouds.16 mph72%30.24 "HgN/A
10:50 am54 °FPassing clouds.17 mph77%30.27 "HgN/A
9:20 am50 °FPassing clouds.15 mph82%30.27 "HgN/A
Weather by CustomWeather, © 2016

See weather overviewHow to use our weather pages